Time,TemperatureF,DewpointF,PressureIn,WindDirection,WindDirectionDegrees,WindSpeedMPH,WindSpeedGustMPH,Humidity,HourlyPrecipIn,Conditions,Clouds,dailyrainin,SoftwareType,DateUTC
2013-05-05 00:01:00,51.2,43.5,30.14,SE,126,0.0,0.0,75,0.00,CLR,SKC,0.00,WeatherDisplay:10.37,2013-05-05 04:01:00,
2013-05-05 00:06:00,50.8,43.5,30.14,SE,126,0.0,0.0,76,0.00,CLR,SKC,0.00,WeatherDisplay:10.37,2013-05-05 04:06:00,
2013-05-05 00:11:00,50.6,43.3,30.14,SE,126,0.0,0.0,76,0.00,CLR,SKC,0.00,WeatherDisplay:10.37,2013-05-05 04:11:00,
2013-05-05 00:16:00,50.4,43.1,30.14,SE,126,0.0,0.0,76,0.00,CLR,SKC,0.00,WeatherDisplay:10.37,2013-05-05 04:16:00,
2013-05-05 00:21:00,50.2,43.3,30.15,SE,126,0.0,0.0,77,0.00,CLR,SKC,0.00,WeatherDisplay:10.37,2013-05-05 04:21:00,
2013-05-05 00:26:00,50.0,43.1,30.15,SE,126,0.0,0.0,77,0.00,CLR,SKC,0.00,WeatherDisplay:10.37,2013-05-05 04:26:00,
2013-05-05 00:31:00,49.7,43.1,30.15,SE,126,0.0,0.0,78,0.00,CLR,SKC,0.00,WeatherDisplay:10.37,2013-05-05 04:31:00,
2013-05-05 00:36:00,49.5,42.9,30.15,SE,126,0.0,0.0,78,0.00,CLR,SKC,0.00,WeatherDisplay:10.37,2013-05-05 04:36:00,
2013-05-05 00:41:00,49.3,42.7,30.15,SE,126,0.0,0.0,78,0.00,CLR,SKC,0.00,WeatherDisplay:10.37,2013-05-05 04:41:00,
2013-05-05 00:46:00,49.1,42.5,30.15,SE,126,0.0,0.0,78,0.00,CLR,SKC,0.00,WeatherDisplay:10.37,2013-05-05 04:46:00,
2013-05-05 00:51:00,49.0,42.8,30.15,SE,126,0.0,0.0,79,0.00,CLR,SKC,0.00,WeatherDisplay:10.37,2013-05-05 04:51:00,
2013-05-05 00:56:00,48.8,42.6,30.15,SE,126,0.0,0.0,79,0.00,CLR,SKC,0.00,WeatherDisplay:10.37,2013-05-05 04:56:00,
2013-05-05 01:01:00,48.6,42.4,30.15,SE,126,0.0,0.0,79,0.00,CLR,SKC,0.00,WeatherDisplay:10.37,2013-05-05 05:01:00,
2013-05-05 01:06:00,48.4,42.2,30.15,SE,126,0.0,0.0,79,0.00,CLR,SKC,0.00,WeatherDisplay:10.37,2013-05-05 05:06:00,
2013-05-05 01:11:00,48.3,42.1,30.15,SE,126,0.0,0.0,79,0.00,CLR,SKC,0.00,WeatherDisplay:10.37,2013-05-05 05:11:00,
2013-05-05 01:16:00,48.2,42.0,30.15,SE,126,0.0,0.0,79,0.00,CLR,SKC,0.00,WeatherDisplay:10.37,2013-05-05 05:16:00,
2013-05-05 01:21:00,48.2,43.3,30.15,SE,126,0.0,0.0,83,0.00,CLR,SKC,0.00,WeatherDisplay:10.37,2013-05-05 05:21:00,
2013-05-05 01:26:00,48.2,42.0,30.15,SE,126,0.0,0.0,79,0.00,CLR,SKC,0.00,WeatherDisplay:10.37,2013-05-05 05:26:00,
2013-05-05 01:31:00,48.3,41.8,30.15,SE,126,0.0,0.0,78,0.00,CLR,SKC,0.00,WeatherDisplay:10.37,2013-05-05 05:31:00,
2013-05-05 01:36:00,48.5,42.0,30.15,SE,126,0.0,0.0,78,0.00,CLR,SKC,0.00,WeatherDisplay:10.37,2013-05-05 05:36:00,
2013-05-05 01:41:00,48.5,42.0,30.15,SE,126,0.0,0.0,78,0.00,CLR,SKC,0.00,WeatherDisplay:10.37,2013-05-05 05:41:00,
2013-05-05 01:46:00,48.5,42.0,30.15,SE,126,0.0,0.0,78,0.00,CLR,SKC,0.00,WeatherDisplay:10.37,2013-05-05 05:46:00,
2013-05-05 01:51:00,48.5,42.0,30.14,SE,126,0.0,0.0,78,0.00,CLR,SKC,0.00,WeatherDisplay:10.37,2013-05-05 05:51:00,
2013-05-05 01:56:00,48.4,41.9,30.14,SE,126,0.0,0.0,78,0.00,CLR,SKC,0.00,WeatherDisplay:10.37,2013-05-05 05:56:00,
2013-05-05 02:01:00,48.3,41.8,30.14,SE,126,0.0,0.0,78,0.00,CLR,SKC,0.00,WeatherDisplay:10.37,2013-05-05 06:01:00,
2013-05-05 02:06:00,48.2,41.7,30.14,SE,126,0.0,0.0,78,0.00,CLR,SKC,0.00,WeatherDisplay:10.37,2013-05-05 06:06:00,
2013-05-05 02:11:00,48.1,41.2,30.14,SE,126,0.0,0.0,77,0.00,CLR,SKC,0.00,WeatherDisplay:10.37,2013-05-05 06:11:00,
2013-05-05 02:16:00,48.1,41.6,30.14,SE,126,0.0,0.0,78,0.00,CLR,SKC,0.00,WeatherDisplay:10.37,2013-05-05 06:16:00,
2013-05-05 02:21:00,48.2,41.7,30.14,SE,126,0.0,0.0,78,0.00,CLR,SKC,0.00,WeatherDisplay:10.37,2013-05-05 06:21:00,
2013-05-05 02:26:00,48.1,41.6,30.14,SE,126,0.0,0.0,78,0.00,CLR,SKC,0.00,WeatherDisplay:10.37,2013-05-05 06:26:00,
2013-05-05 02:31:00,48.1,41.6,30.14,SE,126,0.0,0.0,78,0.00,CLR,SKC,0.00,WeatherDisplay:10.37,2013-05-05 06:31:00,
2013-05-05 02:36:00,47.9,41.4,30.14,SE,126,0.0,0.0,78,0.00,CLR,SKC,0.00,WeatherDisplay:10.37,2013-05-05 06:36:00,
2013-05-05 02:41:00,47.8,41.3,30.14,SE,126,0.0,0.0,78,0.00,CLR,SKC,0.00,WeatherDisplay:10.37,2013-05-05 06:41:00,
2013-05-05 02:46:00,47.8,40.9,30.14,SE,126,0.0,0.0,77,0.00,CLR,SKC,0.00,WeatherDisplay:10.37,2013-05-05 06:46:00,
2013-05-05 02:51:00,47.7,40.8,30.14,SE,126,0.0,0.0,77,0.00,CLR,SKC,0.00,WeatherDisplay:10.37,2013-05-05 06:51:00,
2013-05-05 02:56:00,47.6,40.7,30.14,SE,126,0.0,0.0,77,0.00,CLR,SKC,0.00,WeatherDisplay:10.37,2013-05-05 06:56:00,
2013-05-05 03:01:00,47.6,41.1,30.14,SE,126,0.0,0.0,78,0.00,CLR,SKC,0.00,WeatherDisplay:10.37,2013-05-05 07:01:00,
2013-05-05 03:06:00,47.5,41.3,30.14,SE,126,0.0,0.0,79,0.00,CLR,SKC,0.00,WeatherDisplay:10.37,2013-05-05 07:06:00,
2013-05-05 03:11:00,47.4,41.2,30.14,SE,126,0.0,0.0,79,0.00,CLR,SKC,0.00,WeatherDisplay:10.37,2013-05-05 07:11:00,
2013-05-05 03:16:00,47.3,41.1,30.15,SE,126,0.0,0.0,79,0.00,CLR,SKC,0.00,WeatherDisplay:10.37,2013-05-05 07:16:00,
2013-05-05 03:21:00,47.2,41.0,30.15,SE,126,0.0,0.0,79,0.00,CLR,SKC,0.00,WeatherDisplay:10.37,2013-05-05 07:21:00,
2013-05-05 03:26:00,47.2,41.0,30.15,SE,126,0.0,0.0,79,0.00,CLR,SKC,0.00,WeatherDisplay:10.37,2013-05-05 07:26:00,
2013-05-05 03:31:00,47.1,41.2,30.15,SE,126,0.0,0.0,80,0.00,CLR,SKC,0.00,WeatherDisplay:10.37,2013-05-05 07:31:00,
2013-05-05 03:36:00,47.0,41.1,30.15,SE,126,0.0,0.0,80,0.00,CLR,SKC,0.00,WeatherDisplay:10.37,2013-05-05 07:36:00,
2013-05-05 03:41:00,46.9,41.1,30.15,SE,126,0.0,0.0,80,0.00,CLR,SKC,0.00,WeatherDisplay:10.37,2013-05-05 07:41:00,
2013-05-05 03:46:00,46.7,41.2,30.15,SE,126,0.0,0.0,81,0.00,CLR,SKC,0.00,WeatherDisplay:10.37,2013-05-05 07:46:00,
2013-05-05 03:51:00,46.6,41.1,30.15,SE,126,0.0,0.0,81,0.00,CLR,SKC,0.00,WeatherDisplay:10.37,2013-05-05 07:51:00,
2013-05-05 03:56:00,46.5,41.0,30.15,SE,126,0.0,0.0,81,0.00,CLR,SKC,0.00,WeatherDisplay:10.37,2013-05-05 07:56:00,
2013-05-05 04:01:00,46.3,41.1,30.15,SE,126,0.0,0.0,82,0.00,CLR,SKC,0.00,WeatherDisplay:10.37,2013-05-05 08:01:00,
2013-05-05 04:06:00,46.2,41.0,30.15,SE,126,0.0,0.0,82,0.00,CLR,SKC,0.00,WeatherDisplay:10.37,2013-05-05 08:06:00,
2013-05-05 04:11:00,46.1,40.9,30.15,SE,126,0.0,0.0,82,0.00,CLR,SKC,0.00,WeatherDisplay:10.37,2013-05-05 08:11:00,
2013-05-05 04:16:00,45.9,40.7,30.15,SE,126,0.0,0.0,82,0.00,CLR,SKC,0.00,WeatherDisplay:10.37,2013-05-05 08:16:00,
2013-05-05 04:21:00,45.7,40.5,30.15,SE,126,0.0,0.0,82,0.00,CLR,SKC,0.00,WeatherDisplay:10.37,2013-05-05 08:21:00,
2013-05-05 04:26:00,45.5,40.6,30.15,SE,126,0.0,0.0,83,0.00,CLR,SKC,0.00,WeatherDisplay:10.37,2013-05-05 08:26:00,
2013-05-05 04:31:00,45.3,40.7,30.15,SE,126,0.0,0.0,84,0.00,CLR,SKC,0.00,WeatherDisplay:10.37,2013-05-05 08:31:00,
2013-05-05 04:36:00,45.0,40.5,30.15,SE,126,0.0,0.0,84,0.00,CLR,SKC,0.00,WeatherDisplay:10.37,2013-05-05 08:36:00,
2013-05-05 04:41:00,44.8,40.6,30.15,SE,126,0.0,0.0,85,0.00,CLR,SKC,0.00,WeatherDisplay:10.37,2013-05-05 08:41:00,
2013-05-05 04:46:00,44.6,40.7,30.15,SE,126,0.0,0.0,86,0.00,CLR,SKC,0.00,WeatherDisplay:10.37,2013-05-05 08:46:00,
2013-05-05 04:51:00,44.5,40.6,30.16,SE,126,0.0,0.0,86,0.00,CLR,SKC,0.00,WeatherDisplay:10.37,2013-05-05 08:51:00,
2013-05-05 04:56:00,44.4,40.5,30.16,SE,126,0.0,0.0,86,0.00,CLR,SKC,0.00,WeatherDisplay:10.37,2013-05-05 08:56:00,
2013-05-05 05:01:00,44.2,40.3,30.15,SE,126,0.0,0.0,86,0.00,CLR,SKC,0.00,WeatherDisplay:10.37,2013-05-05 09:01:00,
2013-05-05 05:06:00,44.1,40.2,30.15,SE,126,0.0,0.0,86,0.00,CLR,SKC,0.00,WeatherDisplay:10.37,2013-05-05 09:06:00,
2013-05-05 05:11:00,43.9,40.0,30.16,SE,126,0.0,0.0,86,0.00,CLR,SKC,0.00,WeatherDisplay:10.37,2013-05-05 09:11:00,
2013-05-05 05:16:00,43.7,40.1,30.15,SE,126,0.0,0.0,87,0.00,CLR,SKC,0.00,WeatherDisplay:10.37,2013-05-05 09:16:00,
2013-05-05 05:21:00,43.4,39.8,30.15,SE,126,0.0,0.0,87,0.00,CLR,SKC,0.00,WeatherDisplay:10.37,2013-05-05 09:21:00,
2013-05-05 05:26:00,43.2,39.6,30.15,SE,126,0.0,0.0,87,0.00,CLR,SKC,0.00,WeatherDisplay:10.37,2013-05-05 09:26:00,
2013-05-05 05:31:00,43.1,39.8,30.15,SE,126,0.0,0.0,88,0.00,CLR,SKC,0.00,WeatherDisplay:10.37,2013-05-05 09:31:00,
2013-05-05 05:36:00,42.9,39.6,30.15,SE,126,0.0,0.0,88,0.00,CLR,SKC,0.00,WeatherDisplay:10.37,2013-05-05 09:36:00,
2013-05-05 05:41:00,42.8,39.8,30.16,SE,126,0.0,0.0,89,0.00,CLR,SKC,0.00,WeatherDisplay:10.37,2013-05-05 09:41:00,
2013-05-05 05:46:00,42.8,39.8,30.15,SE,126,0.0,0.0,89,0.00,CLR,SKC,0.00,WeatherDisplay:10.37,2013-05-05 09:46:00,
2013-05-05 05:51:00,42.7,40.0,30.15,SE,126,0.0,0.0,90,0.00,CLR,SKC,0.00,WeatherDisplay:10.37,2013-05-05 09:51:00,
2013-05-05 05:56:00,42.7,39.7,30.15,SE,126,0.0,0.0,89,0.00,CLR,SKC,0.00,WeatherDisplay:10.37,2013-05-05 09:56:00,
2013-05-05 06:01:00,42.6,39.9,30.15,SE,126,0.0,0.0,90,0.00,CLR,SKC,0.00,WeatherDisplay:10.37,2013-05-05 10:01:00,
2013-05-05 06:06:00,42.5,39.8,30.15,SE,126,0.0,0.0,90,0.00,CLR,SKC,0.00,WeatherDisplay:10.37,2013-05-05 10:06:00,
2013-05-05 06:11:00,42.4,39.7,30.15,SE,126,0.0,0.0,90,0.00,CLR,SKC,0.00,WeatherDisplay:10.37,2013-05-05 10:11:00,
2013-05-05 06:16:00,42.2,39.5,30.16,SE,126,0.0,0.0,90,0.00,CLR,SKC,0.00,WeatherDisplay:10.37,2013-05-05 10:16:00,
2013-05-05 06:21:00,42.2,39.8,30.16,SE,126,0.0,0.0,91,0.00,CLR,SKC,0.00,WeatherDisplay:10.37,2013-05-05 10:21:00,
2013-05-05 06:26:00,42.1,39.7,30.16,SE,126,0.0,0.0,91,0.00,CLR,SKC,0.00,WeatherDisplay:10.37,2013-05-05 10:26:00,
2013-05-05 06:31:00,42.0,39.6,30.16,SE,126,0.0,0.0,91,0.00,CLR,SKC,0.00,WeatherDisplay:10.37,2013-05-05 10:31:00,
2013-05-05 06:36:00,42.1,39.9,30.16,SE,126,0.0,0.0,92,0.00,CLR,SKC,0.00,WeatherDisplay:10.37,2013-05-05 10:36:00,
2013-05-05 06:41:00,42.2,40.0,30.16,SE,126,0.0,0.0,92,0.00,CLR,SKC,0.00,WeatherDisplay:10.37,2013-05-05 10:41:00,
2013-05-05 06:46:00,42.2,40.0,30.16,SE,126,0.0,0.0,92,0.00,CLR,SKC,0.00,WeatherDisplay:10.37,2013-05-05 10:46:00,
2013-05-05 06:51:00,42.4,40.5,30.16,SE,126,0.0,0.0,93,0.00,CLR,SKC,0.00,WeatherDisplay:10.37,2013-05-05 10:51:00,
2013-05-05 06:56:00,42.6,40.7,30.16,SE,126,0.0,0.0,93,0.00,CLR,SKC,0.00,WeatherDisplay:10.37,2013-05-05 10:56:00,
2013-05-05 07:01:00,42.8,40.9,30.16,SE,126,0.0,0.0,93,0.00,CLR,SKC,0.00,WeatherDisplay:10.37,2013-05-05 11:01:00,
2013-05-05 07:06:00,42.9,41.0,30.16,SE,126,0.0,0.0,93,0.00,CLR,SKC,0.00,WeatherDisplay:10.37,2013-05-05 11:06:00,
2013-05-05 07:11:00,43.0,41.1,30.16,SE,126,0.0,0.0,93,0.00,CLR,SKC,0.00,WeatherDisplay:10.37,2013-05-05 11:11:00,
2013-05-05 07:16:00,43.3,41.7,30.17,SE,126,0.0,0.0,94,0.00,CLR,SKC,0.00,WeatherDisplay:10.37,2013-05-05 11:16:00,
2013-05-05 07:21:00,43.5,41.9,30.17,SE,126,0.0,0.0,94,0.00,CLR,SKC,0.00,WeatherDisplay:10.37,2013-05-05 11:21:00,
2013-05-05 07:26:00,43.8,42.2,30.17,SE,126,0.0,0.0,94,0.00,CLR,SKC,0.00,WeatherDisplay:10.37,2013-05-05 11:26:00,
2013-05-05 07:31:00,44.4,42.8,30.17,SE,126,0.0,0.0,94,0.00,CLR,SKC,0.00,WeatherDisplay:10.37,2013-05-05 11:31:00,
2013-05-05 07:36:00,45.1,43.5,30.17,SE,126,0.0,0.0,94,0.00,CLR,SKC,0.00,WeatherDisplay:10.37,2013-05-05 11:36:00,
2013-05-05 07:41:00,45.7,43.5,30.17,SE,126,0.0,0.0,92,0.00,CLR,SKC,0.00,WeatherDisplay:10.37,2013-05-05 11:41:00,
2013-05-05 07:46:00,46.5,43.7,30.17,SE,126,0.0,0.0,90,0.00,CLR,SKC,0.00,WeatherDisplay:10.37,2013-05-05 11:46:00,
2013-05-05 07:51:00,47.3,43.3,30.17,SE,126,0.0,0.0,86,0.00,CLR,SKC,0.00,WeatherDisplay:10.37,2013-05-05 11:51:00,
2013-05-05 07:56:00,48.2,43.9,30.17,SE,126,0.0,0.0,85,0.00,CLR,SKC,0.00,WeatherDisplay:10.37,2013-05-05 11:56:00,
2013-05-05 08:01:00,49.0,44.4,30.17,SE,126,0.0,0.0,84,0.00,CLR,SKC,0.00,WeatherDisplay:10.37,2013-05-05 12:01:00,
2013-05-05 08:06:00,49.8,44.2,30.17,SE,126,1.1,1.1,81,0.00,CLR,SKC,0.00,WeatherDisplay:10.37,2013-05-05 12:06:00,
2013-05-05 08:11:00,50.8,44.5,30.17,SE,126,0.0,0.0,79,0.00,CLR,SKC,0.00,WeatherDisplay:10.37,2013-05-05 12:11:00,
2013-05-05 08:16:00,51.8,44.8,30.17,SE,126,0.0,0.0,77,0.00,CLR,SKC,0.00,WeatherDisplay:10.37,2013-05-05 12:16:00,
2013-05-05 08:21:00,52.7,45.0,30.17,SE,126,0.0,0.0,75,0.00,CLR,SKC,0.00,WeatherDisplay:10.37,2013-05-05 12:21:00,
2013-05-05 08:26:00,53.5,44.3,30.17,SE,126,0.0,0.0,71,0.00,CLR,SKC,0.00,WeatherDisplay:10.37,2013-05-05 12:26:00,
2013-05-05 08:31:00,54.0,44.4,30.17,SE,126,0.0,0.0,70,0.00,CLR,SKC,0.00,WeatherDisplay:10.37,2013-05-05 12:31:00,
2013-05-05 08:36:00,54.4,44.4,30.17,SE,126,0.0,0.0,69,0.00,CLR,SKC,0.00,WeatherDisplay:10.37,2013-05-05 12:36:00,
2013-05-05 08:41:00,54.8,44.0,30.17,NE,46,0.0,0.0,67,0.00,CLR,SKC,0.00,WeatherDisplay:10.37,2013-05-05 12:41:00,
2013-05-05 08:46:00,55.2,44.8,30.17,NE,46,0.0,0.0,68,0.00,CLR,SKC,0.00,WeatherDisplay:10.37,2013-05-05 12:46:00,
2013-05-05 08:51:00,55.5,44.7,30.17,SW,217,0.0,0.0,67,0.00,CLR,SKC,0.00,WeatherDisplay:10.37,2013-05-05 12:51:00,
2013-05-05 08:56:00,55.9,44.3,30.17,SW,217,1.1,1.1,65,0.00,CLR,SKC,0.00,WeatherDisplay:10.37,2013-05-05 12:56:00,
2013-05-05 09:01:00,56.3,44.7,30.17,SW,217,0.0,0.0,65,0.00,CLR,SKC,0.00,WeatherDisplay:10.37,2013-05-05 13:01:00,
2013-05-05 09:06:00,56.9,45.3,30.17,SW,217,0.0,0.0,65,0.00,CLR,SKC,0.00,WeatherDisplay:10.37,2013-05-05 13:06:00,
2013-05-05 09:11:00,57.1,44.2,30.17,SW,217,0.0,0.0,62,0.00,CLR,SKC,0.00,WeatherDisplay:10.37,2013-05-05 13:11:00,
2013-05-05 09:16:00,57.3,44.4,30.16,SSW,207,3.4,0.0,62,0.00,CLR,SKC,0.00,WeatherDisplay:10.37,2013-05-05 13:16:00,
2013-05-05 09:21:00,57.7,45.2,30.16,SSW,207,0.0,0.0,63,0.00,CLR,SKC,0.00,WeatherDisplay:10.37,2013-05-05 13:21:00,
2013-05-05 09:26:00,58.1,44.7,30.16,NNW,346,1.1,1.1,61,0.00,CLR,SKC,0.00,WeatherDisplay:10.37,2013-05-05 13:26:00,
2013-05-05 09:31:00,58.6,46.0,30.16,North,11,0.0,0.0,63,0.00,CLR,SKC,0.00,WeatherDisplay:10.37,2013-05-05 13:31:00,
2013-05-05 09:36:00,58.9,45.5,30.16,South,188,1.1,0.0,61,0.00,CLR,SKC,0.00,WeatherDisplay:10.37,2013-05-05 13:36:00,
2013-05-05 09:41:00,59.0,46.8,30.16,SSE,167,0.0,0.0,64,0.00,CLR,SKC,0.00,WeatherDisplay:10.37,2013-05-05 13:41:00,
2013-05-05 09:46:00,58.9,45.5,30.16,WSW,247,2.3,2.3,61,0.00,CLR,SKC,0.00,WeatherDisplay:10.37,2013-05-05 13:46:00,
2013-05-05 09:51:00,58.9,45.0,30.16,SE,144,0.0,0.0,60,0.00,CLR,SKC,0.00,WeatherDisplay:10.37,2013-05-05 13:51:00,
2013-05-05 09:56:00,59.1,44.3,30.15,South,180,3.4,3.4,58,0.00,CLR,SKC,0.00,WeatherDisplay:10.37,2013-05-05 13:56:00,
2013-05-05 10:01:00,59.2,43.5,30.15,NE,40,3.4,3.4,56,0.00,CLR,SKC,0.00,WeatherDisplay:10.37,2013-05-05 14:01:00,
2013-05-05 10:06:00,59.5,44.7,30.15,ENE,61,1.1,0.0,58,0.00,CLR,SKC,0.00,WeatherDisplay:10.37,2013-05-05 14:06:00,
2013-05-05 10:11:00,60.2,44.0,30.15,ENE,61,3.0,3.0,55,0.00,CLR,SKC,0.00,WeatherDisplay:10.37,2013-05-05 14:11:00,
2013-05-05 10:16:00,60.8,43.6,30.15,SSW,193,0.0,0.0,53,0.00,CLR,SKC,0.00,WeatherDisplay:10.37,2013-05-05 14:16:00,
2013-05-05 10:21:00,61.3,43.5,30.15,East,86,2.3,2.3,52,0.00,CLR,SKC,0.00,WeatherDisplay:10.37,2013-05-05 14:21:00,
2013-05-05 10:26:00,61.6,43.8,30.15,ESE,115,1.1,0.0,52,0.00,CLR,SKC,0.00,WeatherDisplay:10.37,2013-05-05 14:26:00,
2013-05-05 10:31:00,61.6,43.3,30.15,NE,42,3.4,3.4,51,0.00,CLR,SKC,0.00,WeatherDisplay:10.37,2013-05-05 14:31:00,
2013-05-05 10:36:00,61.7,45.4,30.15,SSE,167,0.0,0.0,55,0.00,CLR,SKC,0.00,WeatherDisplay:10.37,2013-05-05 14:36:00,
2013-05-05 10:41:00,62.3,41.8,30.15,SW,229,2.3,2.3,47,0.00,CLR,SKC,0.00,WeatherDisplay:10.37,2013-05-05 14:41:00,
2013-05-05 10:46:00,62.6,43.7,30.15,SSW,196,3.4,3.4,50,0.00,CLR,SKC,0.00,WeatherDisplay:10.37,2013-05-05 14:46:00,
2013-05-05 10:51:00,63.1,42.5,30.14,SSW,196,5.8,5.8,47,0.00,CLR,SKC,0.00,WeatherDisplay:10.37,2013-05-05 14:51:00,
2013-05-05 10:56:00,63.4,43.4,30.14,SSW,200,1.1,0.0,48,0.00,CLR,SKC,0.00,WeatherDisplay:10.37,2013-05-05 14:56:00,
2013-05-05 11:01:00,63.7,44.2,30.14,NNE,27,0.0,0.0,49,0.00,CLR,SKC,0.00,WeatherDisplay:10.37,2013-05-05 15:01:00,
2013-05-05 11:06:00,63.9,44.4,30.14,ESE,112,1.1,1.1,49,0.00,CLR,SKC,0.00,WeatherDisplay:10.37,2013-05-05 15:06:00,
2013-05-05 11:11:00,64.2,41.2,30.14,SSW,203,3.4,3.4,43,0.00,CLR,SKC,0.00,WeatherDisplay:10.37,2013-05-05 15:11:00,
2013-05-05 11:16:00,64.2,41.8,30.14,SW,234,2.3,2.3,44,0.00,CLR,SKC,0.00,WeatherDisplay:10.37,2013-05-05 15:16:00,
2013-05-05 11:21:00,64.4,42.0,30.14,SE,129,1.1,1.1,44,0.00,CLR,SKC,0.00,WeatherDisplay:10.37,2013-05-05 15:21:00,
2013-05-05 11:26:00,64.7,42.3,30.14,SSW,197,3.4,3.4,44,0.00,CLR,SKC,0.00,WeatherDisplay:10.37,2013-05-05 15:26:00,
2013-05-05 11:31:00,64.8,41.8,30.14,NE,43,3.4,3.4,43,0.00,CLR,SKC,0.00,WeatherDisplay:10.37,2013-05-05 15:31:00,
2013-05-05 11:36:00,65.2,43.3,30.14,South,169,2.3,2.3,45,0.00,CLR,SKC,0.00,WeatherDisplay:10.37,2013-05-05 15:36:00,
2013-05-05 11:41:00,65.4,41.1,30.13,South,179,4.6,4.6,41,0.00,CLR,SKC,0.00,WeatherDisplay:10.37,2013-05-05 15:41:00,
2013-05-05 11:46:00,65.5,41.2,30.13,NNE,27,3.0,3.0,41,0.00,CLR,SKC,0.00,WeatherDisplay:10.37,2013-05-05 15:46:00,
2013-05-05 11:51:00,65.9,42.1,30.13,NE,35,1.1,0.0,42,0.00,CLR,SKC,0.00,WeatherDisplay:10.37,2013-05-05 15:51:00,
2013-05-05 11:56:00,66.3,42.5,30.13,NE,42,4.6,4.6,42,0.00,CLR,SKC,0.00,WeatherDisplay:10.37,2013-05-05 15:56:00,
2013-05-05 12:01:00,67.1,42.0,30.12,SE,142,1.1,1.1,40,0.00,CLR,SKC,0.00,WeatherDisplay:10.37,2013-05-05 16:01:00,
2013-05-05 12:06:00,67.5,41.0,30.12,ENE,73,3.4,3.4,38,0.00,CLR,SKC,0.00,WeatherDisplay:10.37,2013-05-05 16:06:00,
2013-05-05 12:11:00,67.5,41.0,30.12,ENE,57,3.4,3.4,38,0.00,CLR,SKC,0.00,WeatherDisplay:10.37,2013-05-05 16:11:00,
2013-05-05 12:16:00,67.6,39.0,30.12,SSE,159,4.6,4.6,35,0.00,CLR,SKC,0.00,WeatherDisplay:10.37,2013-05-05 16:16:00,
2013-05-05 12:21:00,67.5,41.7,30.11,SSW,192,2.0,2.0,39,0.00,CLR,SKC,0.00,WeatherDisplay:10.37,2013-05-05 16:21:00,
2013-05-05 12:26:00,67.8,43.9,30.11,NE,54,0.0,0.0,42,0.00,CLR,SKC,0.00,WeatherDisplay:10.37,2013-05-05 16:26:00,
2013-05-05 12:31:00,68.2,38.7,30.11,ENE,61,6.9,6.9,34,0.00,CLR,SKC,0.00,WeatherDisplay:10.37,2013-05-05 16:31:00,
2013-05-05 12:36:00,68.5,43.2,30.11,SE,146,2.3,2.3,40,0.00,CLR,SKC,0.00,WeatherDisplay:10.37,2013-05-05 16:36:00,
2013-05-05 12:41:00,69.0,45.6,30.11,NNE,22,1.0,0.0,43,0.00,CLR,SKC,0.00,WeatherDisplay:10.37,2013-05-05 16:41:00,
2013-05-05 12:46:00,69.4,40.5,30.11,SSE,156,1.1,1.1,35,0.00,CLR,SKC,0.00,WeatherDisplay:10.37,2013-05-05 16:46:00,
2013-05-05 12:51:00,69.5,44.1,30.10,NE,48,2.3,2.3,40,0.00,CLR,SKC,0.00,WeatherDisplay:10.37,2013-05-05 16:51:00,
2013-05-05 12:56:00,69.7,40.1,30.10,North,350,5.0,5.0,34,0.00,CLR,SKC,0.00,WeatherDisplay:10.37,2013-05-05 16:56:00,
2013-05-05 13:01:00,69.7,39.3,30.10,NNW,348,1.1,1.1,33,0.00,CLR,SKC,0.00,WeatherDisplay:10.37,2013-05-05 17:01:00,
2013-05-05 13:06:00,70.0,40.3,30.10,East,100,2.3,2.3,34,0.00,CLR,SKC,0.00,WeatherDisplay:10.37,2013-05-05 17:06:00,
2013-05-05 13:11:00,70.2,41.3,30.10,SSE,167,2.3,2.3,35,0.00,CLR,SKC,0.00,WeatherDisplay:10.37,2013-05-05 17:11:00,
2013-05-05 13:16:00,70.4,41.4,30.10,SE,128,0.0,0.0,35,0.00,CLR,SKC,0.00,WeatherDisplay:10.37,2013-05-05 17:16:00,
2013-05-05 13:21:00,70.9,41.1,30.10,SSE,168,0.0,0.1,34,0.00,CLR,SKC,0.00,WeatherDisplay:10.37,2013-05-05 17:21:00,
2013-05-05 13:26:00,71.2,41.4,30.10,SW,222,1.1,1.1,34,0.00,CLR,SKC,0.00,WeatherDisplay:10.37,2013-05-05 17:26:00,
2013-05-05 13:31:00,71.2,39.0,30.09,SSW,194,2.3,2.3,31,0.00,CLR,SKC,0.00,WeatherDisplay:10.37,2013-05-05 17:31:00,
2013-05-05 13:36:00,70.9,41.1,30.09,SSW,209,0.0,0.5,34,0.00,CLR,SKC,0.00,WeatherDisplay:10.37,2013-05-05 17:36:00,
2013-05-05 13:41:00,71.0,40.4,30.09,North,355,2.3,2.3,33,0.00,CLR,SKC,0.00,WeatherDisplay:10.37,2013-05-05 17:41:00,
2013-05-05 13:46:00,71.2,37.3,30.09,NNE,15,6.9,6.9,29,0.00,CLR,SKC,0.00,WeatherDisplay:10.37,2013-05-05 17:46:00,
2013-05-05 13:51:00,71.4,40.0,30.08,ESE,120,1.1,1.1,32,0.00,CLR,SKC,0.00,WeatherDisplay:10.37,2013-05-05 17:51:00,
2013-05-05 13:56:00,71.8,36.9,30.08,NNE,16,6.9,6.9,28,0.00,CLR,SKC,0.00,WeatherDisplay:10.37,2013-05-05 17:56:00,
2013-05-05 14:01:00,72.1,44.4,30.08,SSW,210,0.0,0.1,37,0.00,CLR,SKC,0.00,WeatherDisplay:10.37,2013-05-05 18:01:00,
2013-05-05 14:06:00,72.4,40.0,30.08,SE,145,3.4,3.4,31,0.00,CLR,SKC,0.00,WeatherDisplay:10.37,2013-05-05 18:06:00,
2013-05-05 14:11:00,72.6,38.5,30.08,SSE,165,1.1,1.1,29,0.00,CLR,SKC,0.00,WeatherDisplay:10.37,2013-05-05 18:11:00,
2013-05-05 14:16:00,72.6,34.7,30.08,SSE,165,0.0,0.0,25,0.00,CLR,SKC,0.00,WeatherDisplay:10.37,2013-05-05 18:16:00,
2013-05-05 14:21:00,72.9,39.6,30.08,SSE,165,2.3,0.0,30,0.00,CLR,SKC,0.00,WeatherDisplay:10.37,2013-05-05 18:21:00,
2013-05-05 14:26:00,73.3,38.2,30.07,North,11,4.0,4.0,28,0.00,CLR,SKC,0.00,WeatherDisplay:10.37,2013-05-05 18:26:00,
2013-05-05 14:31:00,73.6,36.6,30.07,SW,219,3.4,3.4,26,0.00,CLR,SKC,0.00,WeatherDisplay:10.37,2013-05-05 18:31:00,
2013-05-05 14:36:00,73.7,36.7,30.07,South,180,4.6,4.6,26,0.00,CLR,SKC,0.00,WeatherDisplay:10.37,2013-05-05 18:36:00,
2013-05-05 14:41:00,73.4,38.3,30.07,SSE,157,1.1,1.1,28,0.00,CLR,SKC,0.00,WeatherDisplay:10.37,2013-05-05 18:41:00,
2013-05-05 14:46:00,73.3,34.3,30.07,SE,125,4.6,4.6,24,0.00,CLR,SKC,0.00,WeatherDisplay:10.37,2013-05-05 18:46:00,
2013-05-05 14:51:00,73.3,37.3,30.07,East,90,3.4,3.4,27,0.00,CLR,SKC,0.00,WeatherDisplay:10.37,2013-05-05 18:51:00,
2013-05-05 14:56:00,73.5,36.5,30.07,ESE,113,3.4,3.4,26,0.00,CLR,SKC,0.00,WeatherDisplay:10.37,2013-05-05 18:56:00,
2013-05-05 15:01:00,73.7,37.6,30.06,WSW,252,3.4,3.4,27,0.00,CLR,SKC,0.00,WeatherDisplay:10.37,2013-05-05 19:01:00,
2013-05-05 15:06:00,73.9,36.8,30.06,East,79,4.6,4.6,26,0.00,CLR,SKC,0.00,WeatherDisplay:10.37,2013-05-05 19:06:00,
2013-05-05 15:11:00,74.0,37.9,30.06,SSE,165,5.0,5.0,27,0.00,CLR,SKC,0.00,WeatherDisplay:10.37,2013-05-05 19:11:00,
2013-05-05 15:16:00,74.2,36.1,30.06,SW,228,4.6,4.6,25,0.00,CLR,SKC,0.00,WeatherDisplay:10.37,2013-05-05 19:16:00,
2013-05-05 15:21:00,74.1,36.0,30.06,SSE,157,3.4,3.4,25,0.00,CLR,SKC,0.00,WeatherDisplay:10.37,2013-05-05 19:21:00,
2013-05-05 15:26:00,74.3,36.2,30.06,NE,54,5.8,5.8,25,0.00,CLR,SKC,0.00,WeatherDisplay:10.37,2013-05-05 19:26:00,
2013-05-05 15:31:00,74.5,33.1,30.05,ENE,68,2.0,2.0,22,0.00,CLR,SKC,0.00,WeatherDisplay:10.37,2013-05-05 19:31:00,
2013-05-05 15:36:00,74.7,41.2,30.05,SW,225,1.1,0.0,30,0.00,CLR,SKC,0.00,WeatherDisplay:10.37,2013-05-05 19:36:00,
2013-05-05 15:41:00,74.7,35.5,30.05,South,172,1.1,1.1,24,0.00,CLR,SKC,0.00,WeatherDisplay:10.37,2013-05-05 19:41:00,
2013-05-05 15:46:00,74.6,35.4,30.05,South,184,4.0,4.0,24,0.00,CLR,SKC,0.00,WeatherDisplay:10.37,2013-05-05 19:46:00,
2013-05-05 15:51:00,74.4,37.3,30.05,SSE,165,2.3,2.3,26,0.00,CLR,SKC,0.00,WeatherDisplay:10.37,2013-05-05 19:51:00,
2013-05-05 15:56:00,74.3,34.1,30.05,South,191,4.6,4.6,23,0.00,CLR,SKC,0.00,WeatherDisplay:10.37,2013-05-05 19:56:00,
2013-05-05 16:01:00,74.2,36.1,30.05,ESE,111,3.4,3.4,25,0.00,CLR,SKC,0.00,WeatherDisplay:10.37,2013-05-05 20:01:00,
2013-05-05 16:06:00,74.2,36.1,30.05,South,173,3.4,3.4,25,0.00,CLR,SKC,0.00,WeatherDisplay:10.37,2013-05-05 20:06:00,
2013-05-05 16:11:00,74.2,32.9,30.04,SSW,204,5.8,5.8,22,0.00,CLR,SKC,0.00,WeatherDisplay:10.37,2013-05-05 20:11:00,
2013-05-05 16:16:00,74.1,38.0,30.05,SW,223,3.4,3.4,27,0.00,CLR,SKC,0.00,WeatherDisplay:10.37,2013-05-05 20:16:00,
2013-05-05 16:21:00,74.2,31.7,30.05,SW,228,3.4,3.4,21,0.00,CLR,SKC,0.00,WeatherDisplay:10.37,2013-05-05 20:21:00,
2013-05-05 16:26:00,73.9,33.7,30.04,NE,44,4.0,4.0,23,0.00,CLR,SKC,0.00,WeatherDisplay:10.37,2013-05-05 20:26:00,
2013-05-05 16:31:00,74.2,30.5,30.04,ESE,102,4.6,4.6,20,0.00,CLR,SKC,0.00,WeatherDisplay:10.37,2013-05-05 20:31:00,
2013-05-05 16:36:00,74.2,31.7,30.04,ESE,103,5.0,5.0,21,0.00,CLR,SKC,0.00,WeatherDisplay:10.37,2013-05-05 20:36:00,
2013-05-05 16:41:00,74.3,25.2,30.04,SSW,200,4.0,4.0,16,0.00,CLR,SKC,0.00,WeatherDisplay:10.37,2013-05-05 20:41:00,
2013-05-05 16:46:00,74.0,29.1,30.04,South,182,5.0,5.0,19,0.00,CLR,SKC,0.00,WeatherDisplay:10.37,2013-05-05 20:46:00,
2013-05-05 16:51:00,73.7,24.7,30.04,South,186,4.6,4.6,16,0.00,CLR,SKC,0.00,WeatherDisplay:10.37,2013-05-05 20:51:00,
2013-05-05 16:56:00,73.5,26.0,30.04,SW,229,3.4,3.4,17,0.00,CLR,SKC,0.00,WeatherDisplay:10.37,2013-05-05 20:56:00,
2013-05-05 17:01:00,73.3,25.8,30.04,SW,216,6.9,6.9,17,0.00,CLR,SKC,0.00,WeatherDisplay:10.37,2013-05-05 21:01:00,
2013-05-05 17:06:00,73.2,30.9,30.04,SSW,210,2.3,2.3,21,0.00,CLR,SKC,0.00,WeatherDisplay:10.37,2013-05-05 21:06:00,
2013-05-05 17:11:00,73.3,35.3,30.04,ENE,61,4.0,4.0,25,0.00,CLR,SKC,0.00,WeatherDisplay:10.37,2013-05-05 21:11:00,
2013-05-05 17:16:00,73.3,36.3,30.04,SSE,147,4.6,4.6,26,0.00,CLR,SKC,0.00,WeatherDisplay:10.37,2013-05-05 21:16:00,
2013-05-05 17:21:00,73.3,36.3,30.04,SSE,163,4.0,4.0,26,0.00,CLR,SKC,0.00,WeatherDisplay:10.37,2013-05-05 21:21:00,
2013-05-05 17:26:00,73.1,37.1,30.04,South,175,1.1,1.1,27,0.00,CLR,SKC,0.00,WeatherDisplay:10.37,2013-05-05 21:26:00,
2013-05-05 17:31:00,73.0,35.1,30.04,SE,126,6.9,6.9,25,0.00,CLR,SKC,0.00,WeatherDisplay:10.37,2013-05-05 21:31:00,
2013-05-05 17:36:00,72.9,36.9,30.04,SSE,161,2.3,2.3,27,0.00,CLR,SKC,0.00,WeatherDisplay:10.37,2013-05-05 21:36:00,
2013-05-05 17:41:00,72.8,36.9,30.04,SSE,154,3.4,3.4,27,0.00,CLR,SKC,0.00,WeatherDisplay:10.37,2013-05-05 21:41:00,
2013-05-05 17:46:00,72.7,36.8,30.04,SSE,150,3.4,3.4,27,0.00,CLR,SKC,0.00,WeatherDisplay:10.37,2013-05-05 21:46:00,
2013-05-05 17:51:00,72.4,36.5,30.04,South,184,4.6,4.6,27,0.00,CLR,SKC,0.00,WeatherDisplay:10.37,2013-05-05 21:51:00,
2013-05-05 17:56:00,72.3,37.4,30.04,SE,126,1.1,0.0,28,0.00,CLR,SKC,0.00,WeatherDisplay:10.37,2013-05-05 21:56:00,
2013-05-05 18:01:00,72.2,37.3,30.05,ESE,121,1.1,1.1,28,0.00,CLR,SKC,0.00,WeatherDisplay:10.37,2013-05-05 22:01:00,
2013-05-05 18:06:00,72.1,35.3,30.05,SSE,148,2.3,2.3,26,0.00,CLR,SKC,0.00,WeatherDisplay:10.37,2013-05-05 22:06:00,
2013-05-05 18:11:00,71.8,35.0,30.05,SSE,161,1.1,1.3,26,0.00,CLR,SKC,0.00,WeatherDisplay:10.37,2013-05-05 22:11:00,
2013-05-05 18:16:00,71.5,34.8,30.05,SSE,163,2.3,2.3,26,0.00,CLR,SKC,0.00,WeatherDisplay:10.37,2013-05-05 22:16:00,
2013-05-05 18:21:00,71.3,35.6,30.05,ENE,69,1.1,1.1,27,0.00,CLR,SKC,0.00,WeatherDisplay:10.37,2013-05-05 22:21:00,
2013-05-05 18:26:00,71.1,35.4,30.05,ENE,60,3.4,3.4,27,0.00,CLR,SKC,0.00,WeatherDisplay:10.37,2013-05-05 22:26:00,
2013-05-05 18:31:00,70.8,36.1,30.05,South,186,0.0,0.0,28,0.00,CLR,SKC,0.00,WeatherDisplay:10.37,2013-05-05 22:31:00,
2013-05-05 18:36:00,70.7,36.0,30.05,SSE,161,1.1,1.1,28,0.00,CLR,SKC,0.00,WeatherDisplay:10.37,2013-05-05 22:36:00,
2013-05-05 18:41:00,70.6,36.8,30.05,NE,55,0.0,0.6,29,0.00,CLR,SKC,0.00,WeatherDisplay:10.37,2013-05-05 22:41:00,
2013-05-05 18:46:00,70.4,35.7,30.05,ENE,63,1.1,1.1,28,0.00,CLR,SKC,0.00,WeatherDisplay:10.37,2013-05-05 22:46:00,
2013-05-05 18:51:00,70.2,37.3,30.05,East,98,2.3,0.0,30,0.00,CLR,SKC,0.00,WeatherDisplay:10.37,2013-05-05 22:51:00,
2013-05-05 18:56:00,69.7,36.0,30.05,SE,130,0.0,0.0,29,0.00,CLR,SKC,0.00,WeatherDisplay:10.37,2013-05-05 22:56:00,
2013-05-05 19:01:00,69.3,36.5,30.05,SSE,161,1.1,1.1,30,0.00,CLR,SKC,0.00,WeatherDisplay:10.37,2013-05-05 23:01:00,
2013-05-05 19:06:00,68.9,37.8,30.06,East,96,0.0,0.1,32,0.00,CLR,SKC,0.00,WeatherDisplay:10.37,2013-05-05 23:06:00,
2013-05-05 19:11:00,68.6,37.5,30.06,SSE,166,2.3,0.0,32,0.00,CLR,SKC,0.00,WeatherDisplay:10.37,2013-05-05 23:11:00,
2013-05-05 19:16:00,68.2,38.7,30.06,ENE,68,1.1,1.1,34,0.00,CLR,SKC,0.00,WeatherDisplay:10.37,2013-05-05 23:16:00,
2013-05-05 19:21:00,67.9,40.7,30.06,ESE,117,0.0,0.0,37,0.00,CLR,SKC,0.00,WeatherDisplay:10.37,2013-05-05 23:21:00,
2013-05-05 19:26:00,67.6,39.7,30.06,ESE,117,0.0,0.0,36,0.00,CLR,SKC,0.00,WeatherDisplay:10.37,2013-05-05 23:26:00,
2013-05-05 19:31:00,67.3,39.4,30.06,ESE,117,0.0,0.0,36,0.00,CLR,SKC,0.00,WeatherDisplay:10.37,2013-05-05 23:31:00,
2013-05-05 19:36:00,67.0,39.9,30.06,ESE,117,0.0,0.0,37,0.00,CLR,SKC,0.00,WeatherDisplay:10.37,2013-05-05 23:36:00,
2013-05-05 19:41:00,66.6,39.5,30.06,ESE,117,1.1,0.0,37,0.00,CLR,SKC,0.00,WeatherDisplay:10.37,2013-05-05 23:41:00,
2013-05-05 19:46:00,66.2,39.8,30.06,ESE,118,0.0,0.0,38,0.00,CLR,SKC,0.00,WeatherDisplay:10.37,2013-05-05 23:46:00,
2013-05-05 19:51:00,65.8,40.1,30.06,ESE,118,0.0,0.0,39,0.00,CLR,SKC,0.00,WeatherDisplay:10.37,2013-05-05 23:51:00,
2013-05-05 19:56:00,65.3,40.3,30.06,ESE,118,0.0,0.0,40,0.00,CLR,SKC,0.00,WeatherDisplay:10.37,2013-05-05 23:56:00,
2013-05-05 20:01:00,64.9,40.0,30.06,South,174,1.1,0.0,40,0.00,CLR,SKC,0.00,WeatherDisplay:10.37,2013-05-06 00:01:00,
2013-05-05 20:06:00,64.6,39.7,30.07,South,175,0.0,0.0,40,0.00,CLR,SKC,0.00,WeatherDisplay:10.37,2013-05-06 00:06:00,
2013-05-05 20:11:00,64.3,40.7,30.07,South,175,0.0,0.0,42,0.00,CLR,SKC,0.00,WeatherDisplay:10.37,2013-05-06 00:11:00,
2013-05-05 20:16:00,64.0,40.4,30.07,South,177,0.0,0.0,42,0.00,CLR,SKC,0.00,WeatherDisplay:10.37,2013-05-06 00:16:00,
2013-05-05 20:21:00,63.6,40.7,30.08,South,177,0.0,0.0,43,0.00,CLR,SKC,0.00,WeatherDisplay:10.37,2013-05-06 00:21:00,
2013-05-05 20:26:00,63.2,40.9,30.08,South,177,0.0,0.0,44,0.00,CLR,SKC,0.00,WeatherDisplay:10.37,2013-05-06 00:26:00,
2013-05-05 20:31:00,62.9,41.2,30.08,South,177,0.0,0.0,45,0.00,CLR,SKC,0.00,WeatherDisplay:10.37,2013-05-06 00:31:00,
2013-05-05 20:36:00,62.4,41.3,30.08,South,177,0.0,0.0,46,0.00,CLR,SKC,0.00,WeatherDisplay:10.37,2013-05-06 00:36:00,
2013-05-05 20:41:00,62.0,41.5,30.08,South,177,0.0,0.0,47,0.00,CLR,SKC,0.00,WeatherDisplay:10.37,2013-05-06 00:41:00,
2013-05-05 20:46:00,61.6,41.7,30.08,South,177,0.0,0.0,48,0.00,CLR,SKC,0.00,WeatherDisplay:10.37,2013-05-06 00:46:00,
2013-05-05 20:51:00,61.1,41.8,30.08,South,177,0.0,0.0,49,0.00,CLR,SKC,0.00,WeatherDisplay:10.37,2013-05-06 00:51:00,
2013-05-05 20:56:00,60.6,41.8,30.08,South,177,0.0,0.0,50,0.00,CLR,SKC,0.00,WeatherDisplay:10.37,2013-05-06 00:56:00,
2013-05-05 21:01:00,60.1,42.4,30.09,South,177,0.0,0.0,52,0.00,CLR,SKC,0.00,WeatherDisplay:10.37,2013-05-06 01:01:00,
2013-05-05 21:06:00,59.7,42.0,30.09,South,177,0.0,0.0,52,0.00,CLR,SKC,0.00,WeatherDisplay:10.37,2013-05-06 01:06:00,
2013-05-05 21:11:00,59.2,42.1,30.09,South,177,0.0,0.0,53,0.00,CLR,SKC,0.00,WeatherDisplay:10.37,2013-05-06 01:11:00,
2013-05-05 21:16:00,58.7,42.1,30.09,South,177,0.0,0.0,54,0.00,CLR,SKC,0.00,WeatherDisplay:10.37,2013-05-06 01:16:00,
2013-05-05 21:21:00,58.4,42.3,30.09,South,177,0.0,0.0,55,0.00,CLR,SKC,0.00,WeatherDisplay:10.37,2013-05-06 01:21:00,
2013-05-05 21:26:00,58.0,41.9,30.09,South,177,0.0,0.0,55,0.00,CLR,SKC,0.00,WeatherDisplay:10.37,2013-05-06 01:26:00,
2013-05-05 21:31:00,57.6,42.0,30.10,South,177,0.0,0.0,56,0.00,CLR,SKC,0.00,WeatherDisplay:10.37,2013-05-06 01:31:00,
2013-05-05 21:36:00,57.3,42.2,30.10,South,177,0.0,0.0,57,0.00,CLR,SKC,0.00,WeatherDisplay:10.37,2013-05-06 01:36:00,
2013-05-05 21:41:00,57.1,42.0,30.10,South,177,0.0,0.0,57,0.00,CLR,SKC,0.00,WeatherDisplay:10.37,2013-05-06 01:41:00,
2013-05-05 21:46:00,56.9,41.8,30.10,South,177,0.0,0.0,57,0.00,CLR,SKC,0.00,WeatherDisplay:10.37,2013-05-06 01:46:00,
2013-05-05 21:51:00,56.7,42.1,30.10,South,177,0.0,0.0,58,0.00,CLR,SKC,0.00,WeatherDisplay:10.37,2013-05-06 01:51:00,
2013-05-05 21:56:00,56.4,42.2,30.10,South,177,0.0,0.0,59,0.00,CLR,SKC,0.00,WeatherDisplay:10.37,2013-05-06 01:56:00,
2013-05-05 22:01:00,56.2,42.1,30.10,South,177,0.0,0.0,59,0.00,CLR,SKC,0.00,WeatherDisplay:10.37,2013-05-06 02:01:00,
2013-05-05 22:06:00,56.1,42.0,30.10,South,177,0.0,0.0,59,0.00,CLR,SKC,0.00,WeatherDisplay:10.37,2013-05-06 02:06:00,
2013-05-05 22:11:00,56.2,42.1,30.10,ENE,61,0.0,0.6,59,0.00,CLR,SKC,0.00,WeatherDisplay:10.37,2013-05-06 02:11:00,
2013-05-05 22:16:00,56.3,42.1,30.10,ESE,113,0.0,0.0,59,0.00,CLR,SKC,0.00,WeatherDisplay:10.37,2013-05-06 02:16:00,
2013-05-05 22:21:00,56.4,41.8,30.10,ESE,113,0.0,0.0,58,0.00,CLR,SKC,0.00,WeatherDisplay:10.37,2013-05-06 02:21:00,
2013-05-05 22:26:00,56.4,41.8,30.10,ESE,113,0.0,0.0,58,0.00,CLR,SKC,0.00,WeatherDisplay:10.37,2013-05-06 02:26:00,
2013-05-05 22:31:00,56.3,41.7,30.11,ESE,113,0.0,0.0,58,0.00,CLR,SKC,0.00,WeatherDisplay:10.37,2013-05-06 02:31:00,
2013-05-05 22:36:00,56.1,41.1,30.11,ESE,113,0.0,0.0,57,0.00,CLR,SKC,0.00,WeatherDisplay:10.37,2013-05-06 02:36:00,
2013-05-05 22:41:00,55.8,41.2,30.11,ESE,113,0.0,0.0,58,0.00,CLR,SKC,0.00,WeatherDisplay:10.37,2013-05-06 02:41:00,
2013-05-05 22:46:00,55.6,41.5,30.11,ESE,113,0.0,0.0,59,0.00,CLR,SKC,0.00,WeatherDisplay:10.37,2013-05-06 02:46:00,
2013-05-05 22:51:00,55.3,41.6,30.11,ESE,113,0.0,0.0,60,0.00,CLR,SKC,0.00,WeatherDisplay:10.37,2013-05-06 02:51:00,
2013-05-05 22:56:00,55.0,41.8,30.11,ESE,113,0.0,0.0,61,0.00,CLR,SKC,0.00,WeatherDisplay:10.37,2013-05-06 02:56:00,
2013-05-05 23:01:00,54.6,41.8,30.11,ESE,113,0.0,0.0,62,0.00,CLR,SKC,0.00,WeatherDisplay:10.37,2013-05-06 03:01:00,
2013-05-05 23:06:00,54.1,41.4,30.11,ESE,113,0.0,0.0,62,0.00,CLR,SKC,0.00,WeatherDisplay:10.37,2013-05-06 03:06:00,
2013-05-05 23:11:00,53.7,41.4,30.11,ESE,113,0.0,0.0,63,0.00,CLR,SKC,0.00,WeatherDisplay:10.37,2013-05-06 03:11:00,
2013-05-05 23:16:00,53.5,41.6,30.11,ESE,113,0.0,0.0,64,0.00,CLR,SKC,0.00,WeatherDisplay:10.37,2013-05-06 03:16:00,
2013-05-05 23:21:00,53.2,41.7,30.11,ESE,113,0.0,0.0,65,0.00,CLR,SKC,0.00,WeatherDisplay:10.37,2013-05-06 03:21:00,
2013-05-05 23:26:00,53.0,41.5,30.11,ESE,113,0.0,0.0,65,0.00,CLR,SKC,0.00,WeatherDisplay:10.37,2013-05-06 03:26:00,
2013-05-05 23:31:00,52.9,41.4,30.11,ESE,113,0.0,0.0,65,0.00,CLR,SKC,0.00,WeatherDisplay:10.37,2013-05-06 03:31:00,
2013-05-05 23:36:00,52.6,41.6,30.11,ESE,113,0.0,0.0,66,0.00,CLR,SKC,0.00,WeatherDisplay:10.37,2013-05-06 03:36:00,
2013-05-05 23:41:00,52.4,41.4,30.11,ESE,113,0.0,0.0,66,0.00,CLR,SKC,0.00,WeatherDisplay:10.37,2013-05-06 03:41:00,
2013-05-05 23:46:00,52.2,41.2,30.12,ESE,113,0.0,0.0,66,0.00,CLR,SKC,0.00,WeatherDisplay:10.37,2013-05-06 03:46:00,
2013-05-05 23:51:00,52.0,41.4,30.12,ESE,113,0.0,0.0,67,0.00,CLR,SKC,0.00,WeatherDisplay:10.37,2013-05-06 03:51:00,
2013-05-05 23:56:00,51.8,41.6,30.12,ESE,113,0.0,0.0,68,0.00,CLR,SKC,0.00,WeatherDisplay:10.37,2013-05-06 03:56:00,